• Join FlightAware (Why Join?)
  • Login
  • US Flag GB Flag 
19:18 EDT


 

Airport Tracker/Info


-or-


 

Live Flight TrackerFlight Track Log ✈ SWA1688 ✈ 20-May-2013 ✈ KMCO - KALB

Flight Track Log - Related Links

Times and Time Zones

All times are in EDT time to prevent confusion due to time zone crossing. See the SWA1688 flight status page for this flight to view local times or setup timezone preferences in your user account.

Time Position Orientation Groundspeed Altitude Reporting Facility
EDT Latitude Longitude Course Direction KTS MPH feet Rate Location/Type
21:57 28.4000 -81.3000 360° North 165 190 500  Level Orlando TRACON
21:58 28.4000 -81.3000 158° South 153 176 1,600 2,220 Climbing Orlando TRACON
21:59 28.3042 -81.2564 158° South 204 235 5,300 1,980 Climbing Miami Center
22:00 28.3089 -81.1764 86° East 195 224 7,300 2,700 Climbing Miami Center
22:01 28.3197 -81.0872 82° East 241 277 10,700 2,940 Climbing Miami Center
22:02 28.3292 -80.9817 84° East 292 336 13,200 2,400 Climbing Miami Center
22:03 28.3361 -80.8781 86° East 348 400 15,500 2,520 Climbing Miami Center
22:04 28.3439 -80.7558 86° East 374 430 18,300 2,760 Climbing Miami Center
22:05 28.3533 -80.6264 85° East 387 445 21,100 2,340 Climbing Miami Center
22:06 28.3650 -80.5017 84° East 401 461 23,000 1,800 Climbing Miami Center
22:07 28.3750 -80.3581 85° East 406 467 24,700 1,740 Climbing Miami Center
22:08 28.3864 -80.2264 84° East 411 473 26,500 1,140 Climbing Miami Center
22:09 28.3958 -80.0850 86° East 423 487 27,000 600 Climbing Miami Center
22:10 28.4028 -79.9603 86° East 438 504 27,800 1,200 Climbing Miami Center
22:11 28.4142 -79.8164 85° East 443 510 29,400 1,500 Climbing Miami Center
22:12 28.4378 -79.6756 79° East 448 516 30,800 1,560 Climbing Miami Center
22:13 28.5522 -79.5981 31° Northeast 417 480 32,600 1,740 Climbing Miami Center
22:14 28.6661 -79.5344 26° Northeast 423 487 34,300 1,200 Climbing Miami Center
22:15 28.7819 -79.4711 26° Northeast 442 509 35,000 300 Climbing Miami Center
22:16 28.8978 -79.4050 27° Northeast 453 521 35,000  Level Miami Center
22:17 29.0117 -79.3436 25° Northeast 453 521 35,000 540 Level Miami Center
22:18 29.1233 -79.2747 28° Northeast 453 521 36,100 1,260 Climbing Miami Center
22:19 29.2369 -79.2131 25° Northeast 448 516 37,600 1,260 Climbing Miami Center
22:20 29.3486 -79.1511 26° Northeast 448 516 38,700 660 Climbing Miami Center
22:21 29.4622 -79.0892 25° Northeast 443 510 39,000 120 Climbing Miami Center
22:22 29.5739 -79.0200 28° Northeast 449 517 39,000  Level Miami Center
22:24 29.7986 -78.8814 28° Northeast 448 516 39,000  Level Jacksonville Center
22:25 29.9114 -78.8192 26° Northeast 453 521 39,000  Level Jacksonville Center
22:26 30.0356 -78.7925 11° North 453 521 39,000  Level Jacksonville Center
22:27 30.1689 -78.7772 North 453 521 39,000  Level Jacksonville Center
22:28 30.2847 -78.7483 12° North 442 509 39,000  Level Jacksonville Center
22:29 30.4092 -78.7236 10° North 442 509 39,000  Level Jacksonville Center
22:30 30.5336 -78.6989 10° North 449 517 39,000  Level Jacksonville Center
22:31 30.6539 -78.6742 10° North 444 511 39,000  Level Jacksonville Center
22:32 30.7739 -78.6472 11° North 444 511 39,000  Level Jacksonville Center
22:33 30.8964 -78.6222 10° North 444 511 39,000  Level Jacksonville Center
22:34 31.0161 -78.5853 15° North 444 511 39,000  Level Jacksonville Center
22:35 31.1356 -78.5386 18° North 444 511 39,000  Level Jacksonville Center
22:36 31.2531 -78.4942 18° North 444 511 39,000  Level Jacksonville Center
22:37 31.3706 -78.4500 18° North 438 504 39,000  Level Jacksonville Center
22:38 31.4881 -78.4053 18° North 438 504 39,000  Level Jacksonville Center
22:39 31.6075 -78.3606 18° North 438 504 39,000  Level Jacksonville Center
22:40 31.7308 -78.3106 19° North 444 511 39,000  Level Jacksonville Center
22:41 31.8442 -78.2681 18° North 444 511 39,000  Level Jacksonville Center
22:42 31.9775 -78.2075 21° North 444 511 39,000  Level Jacksonville Center
22:43 32.0969 -78.1647 17° North 444 511 39,000  Level Jacksonville Center
22:44 32.2183 -78.1167 19° North 439 505 39,000  Level Jacksonville Center
22:45 32.3378 -78.0686 19° North 439 505 39,000  Level Jacksonville Center
22:46 32.4486 -78.0236 19° North 448 516 39,000  Level Jacksonville Center
22:47 32.5658 -77.9778 18° North 448 516 39,000  Level Jacksonville Center
22:48 32.6850 -77.9317 18° North 448 516 39,000  Level Jacksonville Center
22:49 32.8022 -77.8883 17° North 448 516 39,000  Level Jacksonville Center
22:50 32.9172 -77.8397 20° North 443 510 39,000  Level Jacksonville Center
22:52 33.1028 -77.7656 19° North 467 537 39,000  Level Washington Center
22:53 33.2225 -77.7189 18° North 456 525 39,000  Level Washington Center
22:54 33.3381 -77.6694 20° North 443 510 39,000  Level Washington Center
22:55 33.4558 -77.6228 18° North 443 510 39,000  Level Washington Center
22:56 33.5733 -77.5758 18° North 443 510 39,000  Level Washington Center
22:57 33.6889 -77.5261 20° North 443 510 39,000  Level Washington Center
22:58 33.8064 -77.4789 18° North 443 510 39,000  Level Washington Center
22:59 33.9219 -77.4339 18° North 443 510 39,000  Level Washington Center
23:00 34.0394 -77.3839 19° North 443 510 39,000  Level Washington Center
23:01 34.1550 -77.3386 18° North 443 510 39,000  Level Washington Center
23:02 34.2725 -77.2883 19° North 438 504 39,000  Level Washington Center
23:03 34.3878 -77.2431 18° North 438 504 39,000  Level Washington Center
23:04 34.5033 -77.1950 19° North 438 504 39,000  Level Washington Center
23:05 34.6186 -77.1467 19° North 438 504 39,000  Level Washington Center
23:06 34.7361 -77.0958 20° North 438 504 39,000  Level Washington Center
23:07 34.8536 -77.0500 18° North 438 504 39,000  Level Washington Center
23:08 34.9689 -77.0014 19° North 438 504 39,000  Level Washington Center
23:09 35.0822 -76.9525 19° North 438 504 39,000  Level Washington Center
23:10 35.1975 -76.9011 20° North 432 497 39,000  Level Washington Center
23:11 35.3128 -76.8519 19° North 426 490 39,000  Level Washington Center
23:12 35.4281 -76.8028 19° North 431 496 39,000  Level Washington Center
23:13 35.5392 -76.7561 19° North 425 489 39,000  Level Washington Center
23:14 35.6542 -76.7039 20° North 430 495 39,000  Level Washington Center
23:15 35.7717 -76.6569 18° North 430 495 39,000  Level Washington Center
23:16 35.8889 -76.6047 20° North 430 495 39,000  Level Washington Center
23:17 36.0061 -76.5550 19° North 435 501 39,000  Level Washington Center
23:18 36.1233 -76.5047 19° North 435 501 39,000  Level Washington Center
23:19 36.2406 -76.4547 19° North 440 506 39,000  Level Washington Center
23:20 36.3556 -76.4044 19° North 440 506 39,000  Level Washington Center
23:21 36.4728 -76.3539 19° North 440 506 39,000  Level Washington Center
23:22 36.5878 -76.3058 19° North 440 506 39,000  Level Washington Center
23:23 36.7008 -76.2578 19° North 435 501 39,000  Level Washington Center
23:24 36.8139 -76.2017 22° Northeast 435 501 39,000  Level Washington Center
23:25 36.9286 -76.1506 20° North 430 495 39,000  Level Washington Center
23:26 37.0603 -76.0994 17° North 446 513 39,000  Level Washington Center
23:27 37.1711 -76.0481 20° North 435 501 39,000  Level Washington Center
23:28 37.2881 -75.9964 19° North 429 494 39,000  Level Washington Center
23:29 37.4050 -75.9447 19° North 429 494 39,000  Level Washington Center
23:30 37.5200 -75.8931 20° North 429 494 39,000  Level Washington Center
23:31 37.6389 -75.8383 20° North 435 501 39,000  Level Washington Center
23:32 37.7539 -75.7861 20° North 435 501 39,000  Level Washington Center
23:33 37.8706 -75.7339 19° North 435 501 39,000  Level Washington Center
23:34 37.9856 -75.6814 20° North 435 501 39,000  Level Washington Center
23:35 38.0981 -75.6233 22° Northeast 435 501 39,000  Level Washington Center
23:36 38.2128 -75.5681 21° North 435 501 39,000  Level Washington Center
23:37 38.3192 -75.5231 18° North 435 501 39,000  Level Washington Center
23:38 38.4317 -75.4750 18° North 435 501 39,000  Level Washington Center
23:39 38.5461 -75.4272 18° North 435 501 39,000  Level Washington Center
23:40 38.6628 -75.3817 17° North 430 495 39,000  Level Washington Center
23:41 38.7794 -75.3361 17° North 430 495 39,000  Level Washington Center
23:42 38.8942 -75.2850 19° North 430 495 39,000  Level Washington Center
23:43 39.0108 -75.2364 18° North 435 501 39,000  Level Washington Center
23:44 39.1272 -75.1875 18° North 440 506 39,000  Level Washington Center
23:45 39.2439 -75.1361 19° North 440 506 39,000  Level Washington Center
23:47 39.4317 -74.9856 32° Northeast 439 505 39,000  Level New York Center
23:48 39.5311 -74.8836 38° Northeast 444 511 39,000  Level New York Center
23:49 39.6258 -74.8003 34° Northeast 449 517 39,000  Level New York Center
23:50 39.7228 -74.7006 38° Northeast 443 510 39,000  Level New York Center
23:51 39.8242 -74.6036 36° Northeast 438 504 39,000  Level New York Center
23:52 39.9275 -74.5011 37° Northeast 448 516 39,000  Level New York Center
23:53 40.0378 -74.4392 23° Northeast 448 516 39,000 -60 Level New York Center
23:54 40.1658 -74.4106 10° North 437 503 38,900 -600 Descending New York Center
23:55 40.2917 -74.3819 10° North 449 517 37,900 -1,020 Descending New York Center
23:56 40.4156 -74.3528 10° North 449 517 36,900 -960 Descending New York Center
23:57 40.5414 -74.3239 10° North 449 517 36,000 -960 Descending New York Center
23:59 40.8225 -74.2639 North 462 532 33,800 -1,080 Descending Boston Center
00:00 40.9397 -74.2369 10° North 455 524 32,700 -1,560 Descending Boston Center
00:01 41.0547 -74.2100 10° North 431 496 30,700 -1,980 Descending Boston Center
00:02 41.1656 -74.1856 North 411 473 28,800 -1,980 Descending Boston Center
00:03 41.2808 -74.1528 12° North 397 457 26,800 -1,920 Descending Boston Center
00:04 41.3833 -74.1278 10° North 382 440 25,000 -1,440 Descending Boston Center
00:05 41.4817 -74.1056 10° North 370 426 24,000 -540 Descending Boston Center
00:06 41.5756 -74.0856 North 370 426 24,000 -240 Level Boston Center
00:07 41.6781 -74.0606 10° North 370 426 23,600 -1,800 Descending Boston Center
00:08 41.7847 -74.0356 10° North 370 426 20,500 -3,360 Descending Boston Center
00:08 41.8308 -74.0283 North 388 447 19,000 -3,600 Descending Boston Center
00:09 41.8872 -74.0100 14° North 375 432 17,000 -4,140 Descending Boston Center
00:09 41.9583 -73.9978 North 405 466 14,500 -3,900 Descending Boston Center
00:10 42.0064 -73.9822 14° North 384 442 13,100 -2,880 Descending Boston Center
00:11 42.0650 -73.9697 North 402 463 11,600 -2,100 Descending Boston Center
00:11 42.1069 -73.9567 13° North 390 449 11,000 -600 Descending Boston Center
00:12 42.1633 -73.9414 11° North 348 400 11,000  Level Boston Center
00:12 42.2053 -73.9283 13° North 349 402 11,000 -240 Level Boston Center
00:13 42.2428 -73.9208 North 266 306 10,800 -1,500 Descending Boston Center
00:13 42.2719 -73.9103 15° North 294 338 9,500 -2,580 Descending Boston Center
00:14 42.3222 -73.9003 North 283 326 8,200 -2,220 Descending Boston Center
00:14 42.3578 -73.8869 15° North 278 320 7,300 -2,040 Descending Boston Center
00:15 42.3997 -73.8739 13° North 288 331 6,200 -1,800 Descending Boston Center
00:15 42.4269 -73.8661 12° North 278 320 5,500 -1,980 Descending Boston Center
00:16 42.4750 -73.8589 North 276 318 4,200 -2,220 Descending Boston Center
00:16 42.5083 -73.8428 20° North 278 320 3,300 -1,620 Descending Boston Center
00:17 42.5544 -73.8325 North 271 312 2,600 -840 Descending Boston Center
00:17 42.5733 -73.8244 17° North 278 320 2,500 -120 Descending Boston Center
00:18 42.6150 -73.8169 North 222 255 2,500 -240 Level Boston Center
00:18 42.6339 -73.8117 12° North 248 285 2,300 -840 Descending Boston Center
00:19 42.6653 -73.8039 10° North 161 185 1,700 -900 Descending Boston Center
00:20 42.7069 -73.8047 359° North 147 169 900 -840 Descending Boston Center